Regional Weather Roundup
Issued by NWS San Angelo, TX

Home | Current Version | Previous Version | Text Only | Print | Product List | Glossary On
Versions: 1 2 3 4 5 6 7 8 9 10 11 12 13 14 15 16 17 18 19 20 21 22 23 24 25 26 27 28 29 30 31 32 33 34 35 36 37 38 39 40 41 42 43 44 45 46 47 48 49 50
000
ASUS44 KSJT 050811
RWRSJT
WEST CENTRAL TEXAS REGIONAL WEATHER ROUNDUP
NATIONAL WEATHER SERVICE SAN ANGELO TX
300 AM CDT THU MAY 05 2016

NOTE: "FAIR" INDICATES FEW OR NO CLOUDS BELOW 12,000 FEET WITH NO
SIGNIFICANT WEATHER AND/OR OBSTRUCTIONS TO VISIBILITY.

TXZ049-054-064>066-071>073-076>078-098-099-113-114-127-128-139-140-
154-155-168>170-050900
...LOCATIONS ACROSS WEST CENTRAL TEXAS...

CITY           SKY/WX    TMP DP  RH WIND       PRES   REMARKS
SAN ANGELO     PTCLDY    51  43  74 SW5       30.10F
ABILENE        CLEAR     53  49  86 S7        30.08S
DYESS AFB      CLEAR     54  47  76 SW6       30.06F
JUNCTION       CLEAR     47  42  83 W3        30.10F
SWEETWATER     CLEAR     61  42  50 S10       30.12F
BROWNWOOD      CLEAR     52  50  93 CALM      30.08S
COLEMAN        SUNNY     54  48  79 W6        30.08S
SONORA         PTCLDY    45  43  93 N3        30.15F
OZONA          FAIR      46  37  71 CALM      30.13F
BRADY          NOT AVBL
$$

TEXAS PANHANDLE/OKLAHOMA PANHANDLE

CITY           SKY/WX    TMP DP  RH WIND       PRES   REMARKS
AMARILLO       CLEAR     57  37  47 S9        30.13F
BORGER         CLEAR     56  42  59 CALM      30.12R
CANADIAN       CLEAR     47  46  93 CALM      30.11R
DALHART        CLEAR     54  37  52 SW3       30.16S
DUMAS          SUNNY     48  38  67 S7        30.14S
GUYMON         NOT AVBL
HEREFORD       SUNNY     47  38  72 N5        30.16S
PAMPA          SUNNY     56  42  58 SE8       30.13S
PERRYTON       CLEAR     52  46  79 S3        30.11F
$$

SOUTHERN PANHANDLE/SOUTH PLAINS/ROLLING PLAINS

CITY           SKY/WX    TMP DP  RH WIND       PRES   REMARKS
LUBBOCK        CLEAR     54  36  50 SW5       30.13F
SNYDER           N/A     58  39  50 SW6       30.12S
CHILDRESS      CLEAR     63  42  46 E7        30.08S
SEMINOLE       SUNNY     53  32  44 CALM      30.16S
$$

PERMIAN BASIN

CITY           SKY/WX    TMP DP  RH WIND       PRES   REMARKS
MIDLAND        PTCLDY    61  33  35 S6        30.12F
ODESSA         CLEAR     63  31  30 SE5       30.13F
WINK           CLEAR     58  28  32 SE6       30.09F
$$

FAR WEST/SOUTHWEST MOUNTAINS/TRANS PECOS

CITY           SKY/WX    TMP DP  RH WIND       PRES   REMARKS
ALPINE         MOSUNNY   51  22  32 CALM      30.24F
DRYDEN           N/A     64  32  30 NE6       30.08F
EL PASO        CLEAR     67  19  16 CALM      30.12S
FORT STOCKTON  CLEAR     61  31  32 S10       30.12F
GUADALUPE PASS CLEAR     60  20  21 NE16      30.23F
MARFA          CLEAR     45  23  42 N9        30.22F
PECOS          MOSUNNY   55  22  27 SW5       30.10F
$$

DALLAS/FORT WORTH METROPLEX

CITY           SKY/WX    TMP DP  RH WIND       PRES   REMARKS
DFW AIRPORT    CLEAR     63  51  65 N9        30.01R
FTW MEACHAM    CLEAR     63  50  62 N6        30.01S
DAL-EXECUTIVE  CLEAR     61  52  72 N5        30.00S
GRAND PRAIRIE  CLEAR     64  51  61 CALM      30.03S
ADDISON        CLEAR     65  51  60 CALM      30.03S
MESQUITE       SUNNY     62  51  68 NW3       30.01S
LANCASTER      SUNNY     61  50  68 N6        30.01S
$$

NORTH CENTRAL TEXAS

CITY           SKY/WX    TMP DP  RH WIND       PRES   REMARKS
SHRMAN/DENISON SUNNY     53  45  72 CALM      30.03S
GAINESVILLE    CLEAR     56  46  68 N3        30.05S
BRIDGEPORT     SUNNY     55  53  94 CALM      30.05S
DENTON         CLEAR     57  51  80 NW3       30.02S
WAXAHACHIE     SUNNY     63  53  69 N5        30.02S
GRANBURY         N/A     55  53  91 SW5       30.04S
$$

WESTERN NORTH TEXAS

CITY           SKY/WX    TMP DP  RH WIND       PRES   REMARKS
WICHITA FALLS  CLEAR     59  50  72 N5        30.04S
VERNON         SUNNY     61  45  56 NE5       30.07S
BRECKENRIDGE   SUNNY     57  51  79 S3        30.05S
COMANCHE       CLEAR     62  48  60 SW8       30.06S
$$

CENTRAL AND SOUTH CENTRAL TEXAS

CITY           SKY/WX    TMP DP  RH WIND       PRES   REMARKS
AUSTIN/BERGSTM PTCLDY    59  52  77 CALM      30.03S
WACO           CLEAR     57  54  89 SW3       30.01S
HILLSBORO      MOSUNNY   58  52  81 CALM      30.01F
TEMPLE         CLEAR     58  53  84 CALM      30.03S
KILLEEN-GRAY   CLEAR     66  47  51 NW6       30.03F
FORT HOOD      CLEAR     62  50  65 W2        30.01F
GEORGETOWN     CLEAR     59  48  67 SW3       30.04S
LAGO VISTA     FAIR      65  48  52 W6        30.06S
SAN MARCOS     PTCLDY    57  50  77 NW5       30.04S
NEW BRAUNFELS  CLEAR     57  50  77 W6        30.02S
RANDOLPH AFB   CLEAR     58  50  75 N5        30.03F
SAN ANTONIO    CLEAR     60  49  66 NW6       30.04F
STINSON        CLEAR     60  52  74 CALM      30.02F
PLEASANTON     NOT AVBL
LA GRANGE        N/A     61  58  91 CALM      30.00F
GIDDINGS       SUNNY     60  54  80 NW3       30.05F
$$

EAST TEXAS

CITY           SKY/WX    TMP DP  RH WIND       PRES   REMARKS
PARIS          CLEAR     55  41  58 N6        30.00S
CLARKSVILLE    NOT AVBL
TYLER          CLEAR     61  52  72 N5        29.98S
LONGVIEW       CLEAR     57  53  86 CALM      29.97R
PALESTINE      SUNNY     57  55  93 CALM      30.00R
NACOGDOCHES    CLEAR     55  52  88 N5        29.96S
$$

TEXAS HILL COUNTRY AND EDWARDS PLATEAU

CITY           SKY/WX    TMP DP  RH WIND       PRES   REMARKS
LLANO          SUNNY     48  46  93 CALM      30.10F
HORSESHOE BAY  FAIR      53  49  87 CALM      30.06S
KERRVILLE      CLEAR     49  46  89 N5        30.08F
FREDERICKSBRG  PTCLDY    50  47  88 CALM      30.09S
ROCKSPRINGS    MOSUNNY   57  37  47 CALM      30.12F
HONDO          CLEAR     56  47  71 N7        30.06F
UVALDE         SUNNY     56  47  70 CALM      30.05F
DEL RIO        CLEAR     66  44  45 NE7       30.03F
$$

SOUTHEAST TEXAS

CITY           SKY/WX    TMP DP  RH WIND       PRES   REMARKS
COLLEGE STN    CLEAR     61  55  81 CALM      30.00S
CALDWELL       SUNNY     61  52  72 CALM      30.04S
CROCKETT       SUNNY     59  55  88 NW5       30.00S
BRENHAM        CLEAR     60  58  92 CALM      30.01S
HUNTSVILLE     CLEAR     62  53  72 SW3       29.98S
CONROE         CLEAR     55  53  93 CALM      29.98S
HOUSTON BUSH   CLEAR     63  56  78 W6        29.98S
HOUSTON HOBBY  CLEAR     66  58  75 W6        29.98R
PERLAND        CLEAR     64  58  80 W5        29.99S
WHARTON        MOSUNNY   61  58  90 CALM      30.01S
$$

THE UPPER TEXAS COAST

CITY           SKY/WX    TMP DP  RH WIND       PRES   REMARKS
ORANGE         SUNNY     62  55  77 CALM      29.95F
PORT ARTHUR    CLEAR     62  58  86 W5        29.94S
GALVESTON      CLEAR     71  62  73 W9        29.98S
ANGLETON       CLEAR     64  59  83 CALM      29.99S
BAY CITY       MOSUNNY   63  61  93 NW3       30.00S
$$

TEXAS COASTAL BEND, RIO GRANDE PLAINS DEEP SOUTH TEXAS

CITY           SKY/WX    TMP DP  RH WIND       PRES   REMARKS
VICTORIA       PTCLDY    63  59  87 W7        30.01F
BEEVILLE       FAIR      58  56  93 CALM      30.02F
ROCKPORT       CLEAR     66  62  87 SW5       30.01F
PORT ARANSAS   SUNNY     70  64  80 SW5       30.00F
PORT LAVACA    SUNNY     61  61 100 W6        30.01F
CORPUS CHRISTI CLEAR     64  58  80 SW6       30.01F
KINGSVILLE NAS CLEAR     62  59  90 SW9       30.01F
COTULLA        CLEAR     66  45  46 SE5       30.02F
LAREDO         CLEAR     67  51  56 SE8       30.03F
BROWNSVILLE    PTCLDY    63  61  93 S3        30.04F
PORT ISABEL    PTCLDY    63  61  93 SW7       30.02F
HEBBRONVILLE   SUNNY     64  52  64 SW7       30.03F
MCALLEN        CLEAR     68  60  75 S3        30.04F
WESLACO        CLEAR     66  61  82 SW5       30.02F
FALFURRIAS     SUNNY     61  53  75 S6        30.02F
EDINBURG       SUNNY     69  61  76 SW6       30.03F
$$




USA.gov is the U.S. government's official web portal to all federal, state and local government web resources and services.